TimeEST,TemperatureF,Dew PointF,Humidity,Sea Level PressureIn,VisibilityMPH,Wind Direction,Wind SpeedMPH,Gust SpeedMPH,PrecipitationIn,Events,Conditions,WindDirDegrees,DateUTC
12:12 AM,28.4,26.6,93,29.80,2.5,NNE,13.8,-,0.00,Snow,Light Snow,30,2013-01-06 05:12:00
12:24 AM,28.4,26.6,93,29.80,3.0,NNE,13.8,20.7,0.00,Snow,Light Snow,20,2013-01-06 05:24:00
12:53 AM,28.0,25.0,88,29.85,4.0,NE,11.5,-,0.00,,Overcast,40,2013-01-06 05:53:00
1:24 AM,28.4,24.8,86,29.81,5.0,NNE,9.2,-,N/A,,Overcast,30,2013-01-06 06:24:00
1:53 AM,28.0,24.1,85,29.86,8.0,NNE,12.7,19.6,N/A,,Overcast,20,2013-01-06 06:53:00
2:03 AM,26.6,24.8,93,29.81,9.0,NNE,13.8,-,N/A,,Overcast,20,2013-01-06 07:03:00
2:34 AM,26.6,24.8,93,29.83,5.0,North,16.1,-,0.00,,Overcast,10,2013-01-06 07:34:00
2:53 AM,26.1,23.0,88,29.88,7.0,NNE,15.0,25.3,0.00,,Overcast,20,2013-01-06 07:53:00
3:16 AM,26.6,23.0,86,29.85,10.0,North,13.8,-,N/A,,Overcast,10,2013-01-06 08:16:00
3:42 AM,26.6,23.0,86,29.86,5.0,NNE,15.0,24.2,N/A,,Overcast,20,2013-01-06 08:42:00
3:53 AM,26.1,23.0,88,29.92,5.0,NNE,11.5,-,0.00,Snow,Light Snow,20,2013-01-06 08:53:00
4:02 AM,26.6,23.0,86,29.87,3.0,NNE,13.8,19.6,0.00,Snow,Light Snow,20,2013-01-06 09:02:00
4:24 AM,24.8,21.2,86,29.88,3.0,NNE,10.4,-,0.00,Snow,Light Snow,20,2013-01-06 09:24:00
4:46 AM,24.8,21.2,86,29.89,8.0,NNE,13.8,23.0,0.00,Snow,Light Snow,20,2013-01-06 09:46:00
4:53 AM,25.0,21.9,88,29.94,6.0,NNE,11.5,23.0,0.00,Snow,Light Snow,20,2013-01-06 09:53:00
5:32 AM,24.8,19.4,80,29.90,3.0,North,9.2,-,0.00,Snow,Light Snow,10,2013-01-06 10:32:00
5:53 AM,24.1,19.9,84,29.96,10.0,NNE,12.7,-,0.00,,Overcast,30,2013-01-06 10:53:00
6:51 AM,23.0,19.4,86,29.93,10.0,NNE,13.8,-,N/A,,Overcast,20,2013-01-06 11:51:00
6:53 AM,23.0,19.0,85,29.98,10.0,NNE,12.7,-,N/A,,Overcast,30,2013-01-06 11:53:00
7:34 AM,23.0,19.4,86,29.95,10.0,NNE,10.4,19.6,N/A,,Overcast,20,2013-01-06 12:34:00
7:44 AM,23.0,19.4,86,29.96,10.0,North,11.5,-,N/A,,Overcast,10,2013-01-06 12:44:00
7:53 AM,23.0,19.0,85,30.02,10.0,North,10.4,-,N/A,,Overcast,360,2013-01-06 12:53:00
8:53 AM,21.9,18.0,85,30.05,10.0,North,12.7,-,N/A,,Overcast,360,2013-01-06 13:53:00
9:05 AM,19.4,15.8,86,30.00,10.0,North,15.0,21.9,N/A,,Overcast,360,2013-01-06 14:05:00
9:53 AM,19.9,16.0,85,30.08,10.0,North,12.7,-,N/A,,Overcast,350,2013-01-06 14:53:00
10:02 AM,19.4,15.8,86,30.03,10.0,North,15.0,18.4,N/A,,Overcast,350,2013-01-06 15:02:00
10:40 AM,19.4,15.8,86,30.05,10.0,North,11.5,-,N/A,,Overcast,350,2013-01-06 15:40:00
10:53 AM,19.9,16.0,85,30.11,10.0,NNW,11.5,-,N/A,,Overcast,340,2013-01-06 15:53:00
11:53 AM,19.9,14.0,78,30.12,10.0,North,10.4,-,N/A,,Overcast,10,2013-01-06 16:53:00
12:53 PM,19.9,12.9,74,30.12,10.0,North,10.4,-,N/A,,Overcast,360,2013-01-06 17:53:00
1:53 PM,19.9,12.9,74,30.12,10.0,NW,6.9,-,N/A,,Overcast,320,2013-01-06 18:53:00
2:53 PM,19.9,12.9,74,30.14,10.0,NNW,8.1,-,N/A,,Overcast,340,2013-01-06 19:53:00
3:53 PM,19.9,12.9,74,30.17,9.0,WNW,6.9,-,0.00,,Overcast,290,2013-01-06 20:53:00
4:53 PM,19.9,12.9,74,30.18,10.0,NNW,4.6,-,N/A,,Overcast,330,2013-01-06 21:53:00
5:53 PM,19.9,12.9,74,30.18,10.0,Calm,Calm,-,N/A,,Overcast,0,2013-01-06 22:53:00
6:53 PM,19.0,12.9,77,30.18,10.0,WSW,3.5,-,N/A,,Overcast,250,2013-01-06 23:53:00
7:53 PM,19.0,12.9,77,30.17,10.0,Calm,Calm,-,N/A,,Overcast,0,2013-01-07 00:53:00
8:53 PM,19.0,12.9,77,30.17,10.0,South,4.6,-,N/A,,Overcast,190,2013-01-07 01:53:00
9:53 PM,19.0,12.9,77,30.15,10.0,South,3.5,-,N/A,,Overcast,190,2013-01-07 02:53:00
10:17 PM,19.4,14.0,80,30.09,10.0,Calm,Calm,-,N/A,,Scattered Clouds,0,2013-01-07 03:17:00
10:53 PM,19.0,14.0,81,30.14,10.0,South,3.5,-,N/A,,Clear,170,2013-01-07 03:53:00
11:53 PM,19.0,14.0,81,30.14,10.0,South,4.6,-,N/A,,Clear,170,2013-01-07 04:53:00